sat.trackr.live / text

‹ back to catalog

KUIPER-00096

NORAD 65135 · 2025-171D

PAYLOAD ACTIVE UNKNOWN

§ Identity

Operator
Country
US
Launch date
2025-08-11
Launch site
AFETR
Launch vehicle
Mass (kg)
RCS (m²)

External: N2YO · Heavens-Above · Gunter

§ Orbital elements

Epoch: 2026-09-21T13:57:18.629568Z

Period
97.30 min
Inclination
51.9011°
Eccentricity
0.0000196
Mean motion
14.79932951 rev/d
Perigee alt
629.4 km
Apogee alt
629.7 km
Semi-major
7,007.7 km
B*
6.1689e-5
RAAN
11.8324°
Arg perigee
112.1041°
Mean anomaly
247.9942°
Rev number
6,190

§ Raw data

KUIPER-000961 65135U 25171D   26264.58146562  .00000249  00000+0  61689-4 0  99912 65135  51.9011  11.8324 0000196 112.1041 247.9942 14.79932951 61907

JSON: /api/v1/satellites/65135 · /tle

For live sub-satellite position, see the globe view (requires WebGL).

§ Visibility from observer

Set your observer location to see the next 7 days of passes ≥ 10°. The values pass through the URL so the page stays shareable.

No JS? Fill the form by hand. The geolocation button needs JavaScript.